Content
SEND FEEDBACK

Daily
Averages
Monthly
Summary
United States of America

ST. LOUIS, MISSOURI


Home > North America > United States > Missouri
Elevation: 535 feet     Latitude: 38 45N     Longitude: 090 22W

WEATHER
 
SELECT A DAY
Number of Records: 194,367;   Date Range: 1/1/95 - 4/17/14
 
SHARE

PRINT THIS DATA

[ ← Previous Day ]
WEATHER ALMANAC - APRIL 21, 2013
[ Next Day → ]
[ °C ]   °F
Weather ElementAverageHighLow
Temperature53.6 °F62.1 °F (2:54 pm)43 °F (6:54 am)
Dewpoint34.4 °F37.9 °F (2:54 pm)30 °F (2:54 am)
Humidity48.9 %60 % (5:54 am)41 % (2:54 pm)
Barometer30.33 in30.42 in (8:54 am)30.25 in (4:54 pm)
Wind Speed8 mph10.4 mph (2:54 pm)
Wind Gust16.1 mph (12:54 pm)
Weather ElementAverage
Visibility10 mi
Wind DirectionESE (116.5 °)

Weather ElementTotal
Precipitation---
Heating Degree Days12.5 (Base 65)
Growing Degree Days2.6 (Base 50)
Averaged from 23 records on April 21, 2013
WEATHER CONDITIONS BREAKOUT
WIND DIRECTION BREAKOUT
WEATHER BY HOUR - APRIL 21, 2013
[ °C ]   °F
Local TimeTemperatureDewpointHumidityBarometerVisibilityWind DirectionWind SpeedGust SpeedPrecipitationEventsConditions
1:54 AM46.0 °F30.9 °F56 %30.34 in10.0 miESE (110°)9.2 mphClear
2:54 AM45.0 °F30.0 °F56 %30.34 in10.0 miESE (120°)5.8 mphClear
3:54 AM45.0 °F30.0 °F56 %30.35 in10.0 miESE (110°)6.9 mphClear
4:54 AM44.1 °F30.0 °F58 %30.36 in10.0 miESE (110°)9.2 mphPartly Cloudy
5:54 AM44.1 °F30.9 °F60 %30.38 in10.0 miEast (100°)8.1 mphClear
6:54 AM43.0 °F30.0 °F60 %30.40 in10.0 miEast (100°)6.9 mphMostly Cloudy
7:54 AM45.0 °F30.9 °F58 %30.41 in10.0 miESE (110°)9.2 mphPartly Cloudy
8:54 AM46.9 °F30.9 °F54 %30.42 in10.0 miSE (140°)9.2 mphOvercast
9:54 AM48.9 °F33.1 °F54 %30.42 in10.0 miESE (120°)9.2 mphMostly Cloudy
10:54 AM53.1 °F34.0 °F48 %30.40 in10.0 miESE (110°)6.9 mphMostly Cloudy
11:54 AM57.0 °F36.0 °F45 %30.38 in10.0 miESE (110°)6.9 mphMostly Cloudy
12:54 PM59.0 °F37.0 °F44 %30.35 in10.0 miSE (130°)9.2 mph16.1 mphOvercast
1:54 PM60.1 °F37.0 °F42 %30.32 in10.0 miEast (100°)9.2 mphOvercast
2:54 PM62.1 °F37.9 °F41 %30.29 in10.0 miESE (120°)10.4 mphMostly Cloudy
3:54 PM62.1 °F37.9 °F41 %30.26 in10.0 miESE (120°)9.2 mphOvercast
4:54 PM62.1 °F37.9 °F41 %30.25 in10.0 miSE (130°)8.1 mphMostly Cloudy
5:54 PM62.1 °F37.9 °F41 %30.25 in10.0 miESE (120°)9.2 mphScattered Clouds
6:54 PM61.0 °F37.9 °F42 %30.25 in10.0 miESE (120°)8.1 mphScattered Clouds
7:54 PM60.1 °F37.9 °F44 %30.25 in10.0 miESE (120°)8.1 mphMostly Cloudy
8:54 PM59.0 °F37.0 °F44 %30.27 in10.0 miESE (120°)6.9 mphClear
9:54 PM57.0 °F37.0 °F47 %30.28 in10.0 miESE (110°)5.8 mphClear
10:54 PM55.9 °F35.1 °F45 %30.28 in10.0 miESE (120°)6.9 mphClear
11:54 PM54.0 °F34.0 °F47 %30.27 in10.0 miSE (130°)5.8 mphClear
Hourly data recorded from KSUS, located 0.00 miles away from St. Louis, Missouri







STORIES FROM OUR PARTNERS